Time,TemperatureF,DewpointF,PressureIn,WindDirection,WindDirectionDegrees,WindSpeedMPH,WindSpeedGustMPH,Humidity,HourlyPrecipIn,Conditions,Clouds,dailyrainin,SoftwareType,DateUTC
2013-05-16 00:02:00,68.0,52.2,29.97,SW,222,8.0,9.0,57,0.00,,,0.00,Wunderground v.1.15,2013-05-16 05:02:00,
2013-05-16 00:08:00,67.9,52.6,29.97,SW,220,4.0,12.0,58,0.00,,,0.00,Wunderground v.1.15,2013-05-16 05:08:00,
2013-05-16 00:13:00,67.9,52.1,29.96,WSW,244,14.0,14.0,57,0.00,,,0.00,Wunderground v.1.15,2013-05-16 05:13:00,
2013-05-16 00:18:00,67.9,52.1,29.96,WSW,238,12.0,14.0,57,0.00,,,0.00,Wunderground v.1.15,2013-05-16 05:18:00,
2013-05-16 00:24:00,67.9,52.1,29.96,SW,231,10.0,11.0,57,0.00,,,0.00,Wunderground v.1.15,2013-05-16 05:24:00,
2013-05-16 00:30:00,67.7,52.4,29.96,West,267,14.0,14.0,58,0.00,,,0.00,Wunderground v.1.15,2013-05-16 05:30:00,
2013-05-16 00:35:00,67.7,52.4,29.96,WSW,242,12.0,16.0,58,0.00,,,0.00,Wunderground v.1.15,2013-05-16 05:35:00,
2013-05-16 00:41:00,67.7,52.4,29.96,WSW,237,10.0,10.0,58,0.00,,,0.00,Wunderground v.1.15,2013-05-16 05:41:00,
2013-05-16 00:46:00,67.7,51.9,29.96,SW,226,8.0,19.0,57,0.00,,,0.00,Wunderground v.1.15,2013-05-16 05:46:00,
2013-05-16 00:51:00,67.6,51.8,29.95,WSW,252,6.0,9.0,57,0.00,,,0.00,Wunderground v.1.15,2013-05-16 05:51:00,
2013-05-16 00:56:00,67.5,52.2,29.95,West,265,9.0,9.0,58,0.00,,,0.00,Wunderground v.1.15,2013-05-16 05:56:00,
2013-05-16 01:02:00,67.5,52.2,29.95,SSW,213,7.0,9.0,58,0.00,,,0.00,Wunderground v.1.15,2013-05-16 06:02:00,
2013-05-16 01:07:00,67.5,51.7,29.95,WSW,240,14.0,14.0,57,0.00,,,0.00,Wunderground v.1.15,2013-05-16 06:07:00,
2013-05-16 01:13:00,67.5,52.2,29.95,SW,230,4.0,10.0,58,0.00,,,0.00,Wunderground v.1.15,2013-05-16 06:13:00,
2013-05-16 01:19:00,67.3,52.0,29.95,WSW,248,3.0,11.0,58,0.00,,,0.00,Wunderground v.1.15,2013-05-16 06:19:00,
2013-05-16 01:24:00,67.0,52.2,29.94,WSW,253,10.0,10.0,59,0.00,,,0.00,Wunderground v.1.15,2013-05-16 06:24:00,
2013-05-16 01:30:00,66.8,52.5,29.94,SW,227,9.0,10.0,60,0.00,,,0.00,Wunderground v.1.15,2013-05-16 06:30:00,
2013-05-16 01:36:00,66.7,52.4,29.94,SW,222,4.0,8.0,60,0.00,,,0.00,Wunderground v.1.15,2013-05-16 06:36:00,
2013-05-16 01:42:00,66.6,52.3,29.94,SW,223,9.0,9.0,60,0.00,,,0.00,Wunderground v.1.15,2013-05-16 06:42:00,
2013-05-16 01:47:00,66.5,52.2,29.94,SW,221,7.0,9.0,60,0.00,,,0.00,Wunderground v.1.15,2013-05-16 06:47:00,
2013-05-16 01:52:00,66.5,52.2,29.94,WSW,238,9.0,9.0,60,0.00,,,0.00,Wunderground v.1.15,2013-05-16 06:52:00,
2013-05-16 01:57:00,66.5,52.2,29.94,SW,215,9.0,10.0,60,0.00,,,0.00,Wunderground v.1.15,2013-05-16 06:57:00,
2013-05-16 02:02:00,66.5,52.2,29.94,SW,217,7.0,11.0,60,0.00,,,0.00,Wunderground v.1.15,2013-05-16 07:02:00,
2013-05-16 02:07:00,66.4,52.1,29.94,SW,229,9.0,11.0,60,0.00,,,0.00,Wunderground v.1.15,2013-05-16 07:07:00,
2013-05-16 02:12:00,66.4,52.1,29.94,SSW,209,7.0,11.0,60,0.00,,,0.00,Wunderground v.1.15,2013-05-16 07:12:00,
2013-05-16 02:17:00,66.4,52.1,29.94,WSW,240,6.0,13.0,60,0.00,,,0.00,Wunderground v.1.15,2013-05-16 07:17:00,
2013-05-16 02:22:00,66.3,52.4,29.94,WSW,244,10.0,14.0,61,0.00,,,0.00,Wunderground v.1.15,2013-05-16 07:22:00,
2013-05-16 02:27:00,66.3,52.0,29.93,WSW,255,5.0,14.0,60,0.00,,,0.00,Wunderground v.1.15,2013-05-16 07:27:00,
2013-05-16 02:32:00,66.4,52.1,29.93,SW,229,10.0,15.0,60,0.00,,,0.00,Wunderground v.1.15,2013-05-16 07:32:00,
2013-05-16 02:38:00,66.5,52.2,29.93,WSW,239,10.0,15.0,60,0.00,,,0.00,Wunderground v.1.15,2013-05-16 07:38:00,
2013-05-16 02:43:00,66.3,52.0,29.93,SSW,207,7.0,14.0,60,0.00,,,0.00,Wunderground v.1.15,2013-05-16 07:43:00,
2013-05-16 02:48:00,66.3,52.4,29.94,WSW,243,12.0,16.0,61,0.00,,,0.00,Wunderground v.1.15,2013-05-16 07:48:00,
2013-05-16 02:53:00,66.2,52.3,29.94,WSW,248,9.0,14.0,61,0.00,,,0.00,Wunderground v.1.15,2013-05-16 07:53:00,
2013-05-16 02:58:00,66.2,52.3,29.94,SSW,209,8.0,15.0,61,0.00,,,0.00,Wunderground v.1.15,2013-05-16 07:58:00,
2013-05-16 03:03:00,66.1,52.3,29.94,WSW,239,7.0,15.0,61,0.00,,,0.00,Wunderground v.1.15,2013-05-16 08:03:00,
2013-05-16 03:08:00,66.1,52.3,29.94,SW,234,8.0,16.0,61,0.00,,,0.00,Wunderground v.1.15,2013-05-16 08:08:00,
2013-05-16 03:13:00,66.0,52.2,29.93,SW,236,9.0,13.0,61,0.00,,,0.00,Wunderground v.1.15,2013-05-16 08:13:00,
2013-05-16 03:18:00,66.0,52.2,29.93,WSW,246,8.0,17.0,61,0.00,,,0.00,Wunderground v.1.15,2013-05-16 08:18:00,
2013-05-16 03:23:00,65.9,52.1,29.93,WSW,246,10.0,13.0,61,0.00,,,0.00,Wunderground v.1.15,2013-05-16 08:23:00,
2013-05-16 03:28:00,65.8,52.4,29.93,WSW,250,9.0,15.0,62,0.00,,,0.00,Wunderground v.1.15,2013-05-16 08:28:00,
2013-05-16 03:33:00,65.6,52.2,29.94,West,268,4.0,13.0,62,0.00,,,0.00,Wunderground v.1.15,2013-05-16 08:33:00,
2013-05-16 03:38:00,65.4,52.5,29.94,WSW,240,8.0,13.0,63,0.00,,,0.00,Wunderground v.1.15,2013-05-16 08:38:00,
2013-05-16 03:43:00,65.4,52.5,29.94,WSW,238,10.0,12.0,63,0.00,,,0.00,Wunderground v.1.15,2013-05-16 08:43:00,
2013-05-16 03:48:00,65.4,52.5,29.94,WSW,244,10.0,13.0,63,0.00,,,0.00,Wunderground v.1.15,2013-05-16 08:48:00,
2013-05-16 03:53:00,65.3,52.4,29.94,SW,226,6.0,10.0,63,0.00,,,0.00,Wunderground v.1.15,2013-05-16 08:53:00,
2013-05-16 03:58:00,65.2,52.3,29.95,SW,226,9.0,11.0,63,0.00,,,0.00,Wunderground v.1.15,2013-05-16 08:58:00,
2013-05-16 04:03:00,65.3,52.4,29.95,WSW,238,11.0,11.0,63,0.00,,,0.00,Wunderground v.1.15,2013-05-16 09:03:00,
2013-05-16 04:08:00,65.3,52.4,29.95,SW,231,8.0,12.0,63,0.00,,,0.00,Wunderground v.1.15,2013-05-16 09:08:00,
2013-05-16 04:13:00,65.2,52.7,29.95,WSW,242,8.0,11.0,64,0.00,,,0.00,Wunderground v.1.15,2013-05-16 09:13:00,
2013-05-16 04:18:00,65.3,52.8,29.94,SW,230,9.0,11.0,64,0.00,,,0.00,Wunderground v.1.15,2013-05-16 09:18:00,
2013-05-16 04:23:00,65.4,52.9,29.95,WSW,246,9.0,11.0,64,0.00,,,0.00,Wunderground v.1.15,2013-05-16 09:23:00,
2013-05-16 04:28:00,65.4,52.9,29.95,SW,233,8.0,11.0,64,0.00,,,0.00,Wunderground v.1.15,2013-05-16 09:28:00,
2013-05-16 04:34:00,65.4,52.9,29.95,SW,221,3.0,10.0,64,0.00,,,0.00,Wunderground v.1.15,2013-05-16 09:34:00,
2013-05-16 04:39:00,65.4,52.9,29.95,SW,234,6.0,10.0,64,0.00,,,0.00,Wunderground v.1.15,2013-05-16 09:39:00,
2013-05-16 04:44:00,65.4,52.9,29.95,WSW,241,7.0,9.0,64,0.00,,,0.00,Wunderground v.1.15,2013-05-16 09:44:00,
2013-05-16 04:49:00,65.4,52.9,29.95,SSW,205,6.0,10.0,64,0.00,,,0.00,Wunderground v.1.15,2013-05-16 09:49:00,
2013-05-16 04:54:00,65.2,52.7,29.95,SW,222,8.0,10.0,64,0.00,,,0.00,Wunderground v.1.15,2013-05-16 09:54:00,
2013-05-16 04:59:00,65.2,53.1,29.95,SW,227,6.0,10.0,65,0.00,,,0.00,Wunderground v.1.15,2013-05-16 09:59:00,
2013-05-16 05:04:00,65.1,53.0,29.95,SW,232,9.0,9.0,65,0.00,,,0.00,Wunderground v.1.15,2013-05-16 10:04:00,
2013-05-16 05:09:00,65.2,53.1,29.94,WSW,243,10.0,11.0,65,0.00,,,0.00,Wunderground v.1.15,2013-05-16 10:09:00,
2013-05-16 05:14:00,65.5,53.4,29.94,SW,235,9.0,11.0,65,0.00,,,0.00,Wunderground v.1.15,2013-05-16 10:14:00,
2013-05-16 05:19:00,65.4,53.3,29.95,WSW,242,9.0,11.0,65,0.00,,,0.00,Wunderground v.1.15,2013-05-16 10:19:00,
2013-05-16 05:24:00,65.4,53.3,29.94,West,279,7.0,11.0,65,0.00,,,0.00,Wunderground v.1.15,2013-05-16 10:24:00,
2013-05-16 05:29:00,65.4,53.7,29.95,WSW,250,7.0,11.0,66,0.00,,,0.00,Wunderground v.1.15,2013-05-16 10:29:00,
2013-05-16 05:34:00,65.4,53.7,29.95,WSW,241,11.0,13.0,66,0.00,,,0.00,Wunderground v.1.15,2013-05-16 10:34:00,
2013-05-16 05:39:00,65.4,53.7,29.95,WSW,238,6.0,13.0,66,0.00,,,0.00,Wunderground v.1.15,2013-05-16 10:39:00,
2013-05-16 05:44:00,65.3,53.6,29.95,WSW,250,7.0,9.0,66,0.00,,,0.00,Wunderground v.1.15,2013-05-16 10:44:00,
2013-05-16 05:50:00,65.5,54.2,29.95,West,261,4.0,11.0,67,0.00,,,0.00,Wunderground v.1.15,2013-05-16 10:50:00,
2013-05-16 05:55:00,65.4,54.2,29.95,West,280,7.0,11.0,67,0.00,,,0.00,Wunderground v.1.15,2013-05-16 10:55:00,
2013-05-16 06:00:00,65.4,54.2,29.95,WSW,245,4.0,11.0,67,0.00,,,0.00,Wunderground v.1.15,2013-05-16 11:00:00,
2013-05-16 06:05:00,65.4,54.2,29.96,West,259,8.0,9.0,67,0.00,,,0.00,Wunderground v.1.15,2013-05-16 11:05:00,
2013-05-16 06:10:00,65.4,54.2,29.96,SW,236,9.0,9.0,67,0.00,,,0.00,Wunderground v.1.15,2013-05-16 11:10:00,
2013-05-16 06:15:00,65.6,54.3,29.95,WSW,258,5.0,9.0,67,0.00,,,0.00,Wunderground v.1.15,2013-05-16 11:15:00,
2013-05-16 06:20:00,65.6,54.3,29.96,WSW,245,5.0,10.0,67,0.00,,,0.00,Wunderground v.1.15,2013-05-16 11:20:00,
2013-05-16 06:25:00,65.4,54.2,29.97,SW,230,8.0,8.0,67,0.00,,,0.00,Wunderground v.1.15,2013-05-16 11:25:00,
2013-05-16 06:30:00,65.2,54.0,29.97,SW,222,6.0,8.0,67,0.00,,,0.00,Wunderground v.1.15,2013-05-16 11:30:00,
2013-05-16 06:35:00,65.0,54.2,29.97,SW,226,7.0,9.0,68,0.00,,,0.00,Wunderground v.1.15,2013-05-16 11:35:00,
2013-05-16 06:40:00,64.9,54.1,29.97,SW,232,7.0,10.0,68,0.00,,,0.00,Wunderground v.1.15,2013-05-16 11:40:00,
2013-05-16 06:45:00,64.9,54.1,29.97,West,262,9.0,9.0,68,0.00,,,0.00,Wunderground v.1.15,2013-05-16 11:45:00,
2013-05-16 06:50:00,65.0,54.2,29.97,SW,233,6.0,10.0,68,0.00,,,0.00,Wunderground v.1.15,2013-05-16 11:50:00,
2013-05-16 06:55:00,65.1,54.3,29.98,WSW,244,9.0,10.0,68,0.00,,,0.00,Wunderground v.1.15,2013-05-16 11:55:00,
2013-05-16 07:00:00,65.3,54.5,29.98,NW,309,4.0,12.0,68,0.00,,,0.00,Wunderground v.1.15,2013-05-16 12:00:00,
2013-05-16 07:05:00,65.3,54.5,29.98,WSW,248,8.0,10.0,68,0.00,,,0.00,Wunderground v.1.15,2013-05-16 12:05:00,
2013-05-16 07:10:00,65.1,53.9,29.98,WSW,242,8.0,10.0,67,0.00,,,0.00,Wunderground v.1.15,2013-05-16 12:10:00,
2013-05-16 07:15:00,65.0,54.2,29.98,SW,236,11.0,11.0,68,0.00,,,0.00,Wunderground v.1.15,2013-05-16 12:15:00,
2013-05-16 07:20:00,65.1,54.3,29.98,WSW,241,10.0,11.0,68,0.00,,,0.00,Wunderground v.1.15,2013-05-16 12:20:00,
2013-05-16 07:25:00,65.2,54.4,29.98,West,270,5.0,13.0,68,0.00,,,0.00,Wunderground v.1.15,2013-05-16 12:25:00,
2013-05-16 07:30:00,65.3,54.5,29.98,WSW,252,12.0,13.0,68,0.00,,,0.00,Wunderground v.1.15,2013-05-16 12:30:00,
2013-05-16 07:35:00,65.4,54.6,29.98,SW,231,9.0,12.0,68,0.00,,,0.00,Wunderground v.1.15,2013-05-16 12:35:00,
2013-05-16 07:40:00,65.5,55.1,29.98,SW,227,6.0,9.0,69,0.00,,,0.00,Wunderground v.1.15,2013-05-16 12:40:00,
2013-05-16 07:45:00,65.6,54.8,29.99,WSW,254,10.0,13.0,68,0.00,,,0.00,Wunderground v.1.15,2013-05-16 12:45:00,
2013-05-16 07:50:00,65.8,54.9,29.98,WSW,244,6.0,14.0,68,0.00,,,0.00,Wunderground v.1.15,2013-05-16 12:50:00,
2013-05-16 07:56:00,65.9,55.0,29.98,SW,225,5.0,11.0,68,0.00,,,0.00,Wunderground v.1.15,2013-05-16 12:56:00,
2013-05-16 08:01:00,65.9,55.0,29.98,SW,217,6.0,8.0,68,0.00,,,0.00,Wunderground v.1.15,2013-05-16 13:01:00,
2013-05-16 08:06:00,65.9,55.0,29.98,WSW,252,6.0,11.0,68,0.00,,,0.00,Wunderground v.1.15,2013-05-16 13:06:00,
2013-05-16 08:11:00,65.9,55.0,29.98,SW,223,5.0,10.0,68,0.00,,,0.00,Wunderground v.1.15,2013-05-16 13:11:00,
2013-05-16 08:16:00,65.8,55.3,29.98,WSW,243,7.0,10.0,69,0.00,,,0.00,Wunderground v.1.15,2013-05-16 13:16:00,
2013-05-16 08:21:00,65.8,55.3,29.98,West,270,8.0,11.0,69,0.00,,,0.00,Wunderground v.1.15,2013-05-16 13:21:00,
2013-05-16 08:26:00,66.0,55.5,29.99,WSW,240,8.0,12.0,69,0.00,,,0.00,Wunderground v.1.15,2013-05-16 13:26:00,
2013-05-16 08:31:00,66.0,55.5,29.99,WSW,239,9.0,9.0,69,0.00,,,0.00,Wunderground v.1.15,2013-05-16 13:31:00,
2013-05-16 08:36:00,66.1,55.6,29.99,WSW,237,10.0,11.0,69,0.00,,,0.00,Wunderground v.1.15,2013-05-16 13:36:00,
2013-05-16 08:41:00,66.2,55.7,29.99,West,259,5.0,9.0,69,0.00,,,0.00,Wunderground v.1.15,2013-05-16 13:41:00,
2013-05-16 08:46:00,66.2,55.7,29.99,WSW,240,6.0,9.0,69,0.00,,,0.00,Wunderground v.1.15,2013-05-16 13:46:00,
2013-05-16 08:51:00,66.1,55.6,29.99,WSW,240,6.0,9.0,69,0.00,,,0.00,Wunderground v.1.15,2013-05-16 13:51:00,
2013-05-16 08:56:00,66.1,55.6,29.99,SW,234,6.0,10.0,69,0.00,,,0.00,Wunderground v.1.15,2013-05-16 13:56:00,
2013-05-16 09:01:00,66.1,55.6,29.99,WSW,242,4.0,7.0,69,0.00,,,0.00,Wunderground v.1.15,2013-05-16 14:01:00,
2013-05-16 09:06:00,66.0,55.5,30.00,WSW,246,5.0,10.0,69,0.00,,,0.00,Wunderground v.1.15,2013-05-16 14:06:00,
2013-05-16 09:11:00,66.0,55.9,30.00,SW,217,6.0,8.0,70,0.00,,,0.00,Wunderground v.1.15,2013-05-16 14:11:00,
2013-05-16 09:16:00,66.2,56.5,30.00,SW,228,8.0,10.0,71,0.00,,,0.00,Wunderground v.1.15,2013-05-16 14:16:00,
2013-05-16 09:21:00,66.4,56.7,30.00,SW,232,6.0,8.0,71,0.00,,,0.00,Wunderground v.1.15,2013-05-16 14:21:00,
2013-05-16 09:26:00,66.5,56.8,30.00,SSW,202,4.0,9.0,71,0.00,,,0.00,Wunderground v.1.15,2013-05-16 14:26:00,
2013-05-16 09:31:00,66.8,57.1,30.00,WNW,288,4.0,9.0,71,0.00,,,0.00,Wunderground v.1.15,2013-05-16 14:31:00,
2013-05-16 09:36:00,66.9,57.2,30.00,SW,232,4.0,9.0,71,0.00,,,0.00,Wunderground v.1.15,2013-05-16 14:36:00,
2013-05-16 09:41:00,66.9,57.6,30.00,WNW,284,4.0,5.0,72,0.00,,,0.00,Wunderground v.1.15,2013-05-16 14:41:00,
2013-05-16 09:46:00,66.9,58.0,30.00,WNW,295,5.0,7.0,73,0.00,,,0.00,Wunderground v.1.15,2013-05-16 14:46:00,
2013-05-16 09:51:00,66.7,57.8,30.00,WNW,300,3.0,6.0,73,0.00,,,0.00,Wunderground v.1.15,2013-05-16 14:51:00,
2013-05-16 09:56:00,66.8,57.5,30.00,WSW,242,3.0,9.0,72,0.00,,,0.00,Wunderground v.1.15,2013-05-16 14:56:00,
2013-05-16 10:01:00,67.0,58.1,30.00,WNW,285,4.0,4.0,73,0.00,,,0.00,Wunderground v.1.15,2013-05-16 15:01:00,
2013-05-16 10:06:00,66.9,58.3,29.99,WSW,250,4.0,6.0,74,0.00,,,0.00,Wunderground v.1.15,2013-05-16 15:06:00,
2013-05-16 10:11:00,67.1,57.8,29.99,West,265,4.0,7.0,72,0.00,,,0.00,Wunderground v.1.15,2013-05-16 15:11:00,
2013-05-16 10:16:00,67.4,57.3,29.99,West,267,4.0,8.0,70,0.00,,,0.00,Wunderground v.1.15,2013-05-16 15:16:00,
2013-05-16 10:21:00,67.8,57.7,29.99,West,277,6.0,6.0,70,0.00,,,0.00,Wunderground v.1.15,2013-05-16 15:21:00,
2013-05-16 10:26:00,68.2,58.4,29.99,West,266,6.0,8.0,71,0.00,,,0.00,Wunderground v.1.15,2013-05-16 15:26:00,
2013-05-16 10:31:00,68.6,58.0,29.99,WNW,284,4.0,8.0,69,0.00,,,0.00,Wunderground v.1.15,2013-05-16 15:31:00,
2013-05-16 10:36:00,69.1,59.3,29.99,WSW,244,5.0,8.0,71,0.00,,,0.00,Wunderground v.1.15,2013-05-16 15:36:00,
2013-05-16 10:41:00,69.4,58.8,29.99,WSW,238,5.0,6.0,69,0.00,,,0.00,Wunderground v.1.15,2013-05-16 15:41:00,
2013-05-16 10:46:00,69.7,59.5,29.99,SW,233,4.0,7.0,70,0.00,,,0.00,Wunderground v.1.15,2013-05-16 15:46:00,
2013-05-16 10:51:00,69.8,58.3,29.99,West,261,7.0,7.0,67,0.00,,,0.00,Wunderground v.1.15,2013-05-16 15:51:00,
2013-05-16 10:56:00,69.9,58.0,29.99,WSW,247,5.0,8.0,66,0.00,,,0.00,Wunderground v.1.15,2013-05-16 15:56:00,
2013-05-16 11:01:00,70.0,59.8,29.99,West,275,5.0,5.0,70,0.00,,,0.00,Wunderground v.1.15,2013-05-16 16:01:00,
2013-05-16 11:06:00,70.1,60.3,29.98,WSW,249,4.0,7.0,71,0.00,,,0.00,Wunderground v.1.15,2013-05-16 16:06:00,
2013-05-16 11:11:00,70.3,60.8,29.98,WNW,301,4.0,7.0,72,0.00,,,0.00,Wunderground v.1.15,2013-05-16 16:11:00,
2013-05-16 11:16:00,70.5,59.4,29.98,West,265,3.0,7.0,68,0.00,,,0.00,Wunderground v.1.15,2013-05-16 16:16:00,
2013-05-16 11:21:00,70.8,59.7,29.98,WSW,249,4.0,5.0,68,0.00,,,0.00,Wunderground v.1.15,2013-05-16 16:21:00,
2013-05-16 11:26:00,71.1,59.6,29.97,WNW,290,4.0,6.0,67,0.00,,,0.00,Wunderground v.1.15,2013-05-16 16:26:00,
2013-05-16 11:31:00,71.4,59.4,29.97,WSW,249,4.0,6.0,66,0.00,,,0.00,Wunderground v.1.15,2013-05-16 16:31:00,
2013-05-16 11:36:00,71.4,59.0,29.97,WSW,240,4.0,9.0,65,0.00,,,0.00,Wunderground v.1.15,2013-05-16 16:36:00,
2013-05-16 11:42:00,71.3,58.5,29.97,WSW,254,6.0,8.0,64,0.00,,,0.00,Wunderground v.1.15,2013-05-16 16:42:00,
2013-05-16 11:47:00,71.4,59.4,29.97,NW,314,6.0,10.0,66,0.00,,,0.00,Wunderground v.1.15,2013-05-16 16:47:00,
2013-05-16 11:52:00,71.4,59.9,29.96,West,279,6.0,11.0,67,0.00,,,0.00,Wunderground v.1.15,2013-05-16 16:52:00,
2013-05-16 11:57:00,71.3,60.6,29.96,NNW,343,6.0,11.0,69,0.00,,,0.00,Wunderground v.1.15,2013-05-16 16:57:00,
2013-05-16 12:02:00,71.6,60.1,29.96,West,271,5.0,6.0,67,0.00,,,0.00,Wunderground v.1.15,2013-05-16 17:02:00,
2013-05-16 12:07:00,71.7,59.7,29.96,West,261,2.0,9.0,66,0.00,,,0.00,Wunderground v.1.15,2013-05-16 17:07:00,
2013-05-16 12:12:00,72.1,59.2,29.96,WSW,243,4.0,7.0,64,0.00,,,0.00,Wunderground v.1.15,2013-05-16 17:12:00,
2013-05-16 12:17:00,72.4,60.0,29.96,NW,308,4.0,8.0,65,0.00,,,0.00,Wunderground v.1.15,2013-05-16 17:17:00,
2013-05-16 12:22:00,72.5,59.2,29.96,WNW,301,8.0,8.0,63,0.00,,,0.00,Wunderground v.1.15,2013-05-16 17:22:00,
2013-05-16 12:27:00,72.8,58.6,29.95,SW,221,7.0,11.0,61,0.00,,,0.00,Wunderground v.1.15,2013-05-16 17:27:00,
2013-05-16 12:32:00,72.8,59.0,29.95,NNW,333,3.0,10.0,62,0.00,,,0.00,Wunderground v.1.15,2013-05-16 17:32:00,
2013-05-16 12:37:00,73.1,58.8,29.95,WSW,249,5.0,13.0,61,0.00,,,0.00,Wunderground v.1.15,2013-05-16 17:37:00,
2013-05-16 12:42:00,73.3,58.6,29.95,SSW,205,4.0,8.0,60,0.00,,,0.00,Wunderground v.1.15,2013-05-16 17:42:00,
2013-05-16 12:47:00,73.8,57.1,29.95,SSW,195,4.0,12.0,56,0.00,,,0.00,Wunderground v.1.15,2013-05-16 17:47:00,
2013-05-16 12:52:00,73.7,57.5,29.95,West,263,4.0,7.0,57,0.00,,,0.00,Wunderground v.1.15,2013-05-16 17:52:00,
2013-05-16 12:57:00,73.8,56.6,29.95,West,277,5.0,12.0,55,0.00,,,0.00,Wunderground v.1.15,2013-05-16 17:57:00,
2013-05-16 13:02:00,74.2,57.0,29.95,WNW,286,4.0,6.0,55,0.00,,,0.00,Wunderground v.1.15,2013-05-16 18:02:00,
2013-05-16 13:07:00,74.4,55.1,29.94,SW,230,7.0,9.0,51,0.00,,,0.00,Wunderground v.1.15,2013-05-16 18:07:00,
2013-05-16 13:12:00,74.3,55.5,29.94,West,271,7.0,9.0,52,0.00,,,0.00,Wunderground v.1.15,2013-05-16 18:12:00,
2013-05-16 13:17:00,74.2,56.0,29.95,West,265,8.0,12.0,53,0.00,,,0.00,Wunderground v.1.15,2013-05-16 18:17:00,
2013-05-16 13:22:00,74.2,57.0,29.94,NW,305,5.0,10.0,55,0.00,,,0.00,Wunderground v.1.15,2013-05-16 18:22:00,
2013-05-16 13:27:00,74.8,56.5,29.94,West,264,7.0,13.0,53,0.00,,,0.00,Wunderground v.1.15,2013-05-16 18:27:00,
2013-05-16 13:32:00,74.5,55.2,29.94,WSW,253,8.0,12.0,51,0.00,,,0.00,Wunderground v.1.15,2013-05-16 18:32:00,
2013-05-16 13:37:00,74.5,55.2,29.94,NW,304,6.0,12.0,51,0.00,,,0.00,Wunderground v.1.15,2013-05-16 18:37:00,
2013-05-16 13:42:00,74.6,56.3,29.94,SW,217,4.0,7.0,53,0.00,,,0.00,Wunderground v.1.15,2013-05-16 18:42:00,
2013-05-16 13:47:00,75.0,55.6,29.94,West,277,8.0,12.0,51,0.00,,,0.00,Wunderground v.1.15,2013-05-16 18:47:00,
2013-05-16 13:52:00,75.5,55.0,29.94,WSW,252,13.0,15.0,49,0.00,,,0.00,Wunderground v.1.15,2013-05-16 18:52:00,
2013-05-16 13:58:00,75.0,55.1,29.94,WNW,288,9.0,15.0,50,0.00,,,0.00,Wunderground v.1.15,2013-05-16 18:58:00,
2013-05-16 14:03:00,74.9,54.4,29.94,West,268,12.0,12.0,49,0.00,,,0.00,Wunderground v.1.15,2013-05-16 19:03:00,
2013-05-16 14:08:00,74.9,55.0,29.94,SW,234,6.0,12.0,50,0.00,,,0.00,Wunderground v.1.15,2013-05-16 19:08:00,
2013-05-16 14:13:00,74.9,54.4,29.93,West,263,5.0,11.0,49,0.00,,,0.00,Wunderground v.1.15,2013-05-16 19:13:00,
2013-05-16 14:18:00,75.0,55.1,29.93,WSW,246,7.0,11.0,50,0.00,,,0.00,Wunderground v.1.15,2013-05-16 19:18:00,
2013-05-16 14:23:00,75.2,55.3,29.93,WNW,292,4.0,12.0,50,0.00,,,0.00,Wunderground v.1.15,2013-05-16 19:23:00,
2013-05-16 14:28:00,75.3,55.4,29.93,West,268,8.0,13.0,50,0.00,,,0.00,Wunderground v.1.15,2013-05-16 19:28:00,
2013-05-16 14:33:00,75.1,55.7,29.93,WSW,240,4.0,17.0,51,0.00,,,0.00,Wunderground v.1.15,2013-05-16 19:33:00,
2013-05-16 14:38:00,74.6,55.3,29.93,SSW,206,5.0,21.0,51,0.00,,,0.00,Wunderground v.1.15,2013-05-16 19:38:00,
2013-05-16 14:43:00,74.9,56.6,29.93,SW,216,6.0,9.0,53,0.00,,,0.00,Wunderground v.1.15,2013-05-16 19:43:00,
2013-05-16 14:48:00,75.4,56.0,29.93,West,274,6.0,12.0,51,0.00,,,0.00,Wunderground v.1.15,2013-05-16 19:48:00,
2013-05-16 14:53:00,75.3,55.4,29.93,NW,311,3.0,16.0,50,0.00,,,0.00,Wunderground v.1.15,2013-05-16 19:53:00,
2013-05-16 14:58:00,75.6,54.5,29.93,WSW,242,4.0,16.0,48,0.00,,,0.00,Wunderground v.1.15,2013-05-16 19:58:00,
2013-05-16 15:03:00,75.8,54.7,29.92,SSW,192,5.0,12.0,48,0.00,,,0.00,Wunderground v.1.15,2013-05-16 20:03:00,
2013-05-16 15:08:00,76.0,54.9,29.92,WSW,242,4.0,12.0,48,0.00,,,0.00,Wunderground v.1.15,2013-05-16 20:08:00,
2013-05-16 15:13:00,76.1,53.2,29.92,West,277,3.0,12.0,45,0.00,,,0.00,Wunderground v.1.15,2013-05-16 20:13:00,
2013-05-16 15:18:00,76.3,54.6,29.92,WSW,247,11.0,14.0,47,0.00,,,0.00,Wunderground v.1.15,2013-05-16 20:18:00,
2013-05-16 15:23:00,75.9,54.8,29.92,West,273,6.0,11.0,48,0.00,,,0.00,Wunderground v.1.15,2013-05-16 20:23:00,
2013-05-16 15:28:00,76.3,55.2,29.92,West,266,4.0,11.0,48,0.00,,,0.00,Wunderground v.1.15,2013-05-16 20:28:00,
2013-05-16 15:33:00,76.9,56.3,29.92,WNW,300,5.0,8.0,49,0.00,,,0.00,Wunderground v.1.15,2013-05-16 20:33:00,
2013-05-16 15:38:00,77.1,55.3,29.92,WNW,302,7.0,12.0,47,0.00,,,0.00,Wunderground v.1.15,2013-05-16 20:38:00,
2013-05-16 15:43:00,76.7,55.5,29.92,WSW,248,5.0,7.0,48,0.00,,,0.00,Wunderground v.1.15,2013-05-16 20:43:00,
2013-05-16 15:48:00,76.0,54.3,29.92,WSW,241,8.0,12.0,47,0.00,,,0.00,Wunderground v.1.15,2013-05-16 20:48:00,
2013-05-16 15:53:00,75.6,53.9,29.92,WSW,241,5.0,9.0,47,0.00,,,0.00,Wunderground v.1.15,2013-05-16 20:53:00,
2013-05-16 15:58:00,75.9,55.9,29.91,West,267,3.0,13.0,50,0.00,,,0.00,Wunderground v.1.15,2013-05-16 20:58:00,
2013-05-16 16:03:00,76.1,53.8,29.91,West,277,5.0,12.0,46,0.00,,,0.00,Wunderground v.1.15,2013-05-16 21:03:00,
2013-05-16 16:09:00,75.9,55.4,29.92,West,278,2.0,14.0,49,0.00,,,0.00,Wunderground v.1.15,2013-05-16 21:09:00,
2013-05-16 16:13:00,76.4,55.8,29.92,West,261,4.0,8.0,49,0.00,,,0.00,Wunderground v.1.15,2013-05-16 21:13:00,
2013-05-16 16:18:00,76.6,53.1,29.92,WNW,291,3.0,13.0,44,0.00,,,0.00,Wunderground v.1.15,2013-05-16 21:18:00,
2013-05-16 16:23:00,77.0,50.8,29.92,WSW,242,10.0,13.0,40,0.00,,,0.00,Wunderground v.1.15,2013-05-16 21:23:00,
2013-05-16 16:29:00,76.6,52.4,29.92,WNW,288,7.0,13.0,43,0.00,,,0.00,Wunderground v.1.15,2013-05-16 21:29:00,
2013-05-16 16:34:00,76.9,52.7,29.92,SW,236,8.0,11.0,43,0.00,,,0.00,Wunderground v.1.15,2013-05-16 21:34:00,
2013-05-16 16:39:00,76.7,54.4,29.92,WSW,248,8.0,11.0,46,0.00,,,0.00,Wunderground v.1.15,2013-05-16 21:39:00,
2013-05-16 16:44:00,76.6,56.6,29.92,SW,234,2.0,11.0,50,0.00,,,0.00,Wunderground v.1.15,2013-05-16 21:44:00,
2013-05-16 16:49:00,76.6,57.1,29.92,SW,223,2.0,11.0,51,0.00,,,0.00,Wunderground v.1.15,2013-05-16 21:49:00,
2013-05-16 16:54:00,76.4,57.5,29.91,NW,321,6.0,10.0,52,0.00,,,0.00,Wunderground v.1.15,2013-05-16 21:54:00,
2013-05-16 16:59:00,76.6,57.7,29.91,SSW,211,6.0,10.0,52,0.00,,,0.00,Wunderground v.1.15,2013-05-16 21:59:00,
2013-05-16 17:04:00,76.7,57.2,29.91,SW,234,5.0,11.0,51,0.00,,,0.00,Wunderground v.1.15,2013-05-16 22:04:00,
2013-05-16 17:09:00,76.5,58.6,29.91,WSW,248,7.0,11.0,54,0.00,,,0.00,Wunderground v.1.15,2013-05-16 22:09:00,
2013-05-16 17:14:00,76.7,58.8,29.91,SSE,162,1.0,6.0,54,0.00,,,0.00,Wunderground v.1.15,2013-05-16 22:14:00,
2013-05-16 17:19:00,77.5,57.9,29.91,SE,126,0.0,6.0,51,0.00,,,0.00,Wunderground v.1.15,2013-05-16 22:19:00,
2013-05-16 17:24:00,78.5,58.3,29.91,WSW,251,0.0,5.0,50,0.00,,,0.00,Wunderground v.1.15,2013-05-16 22:24:00,
2013-05-16 17:29:00,79.0,58.8,29.91,NW,319,1.0,6.0,50,0.00,,,0.00,Wunderground v.1.15,2013-05-16 22:29:00,
2013-05-16 17:34:00,78.9,59.2,29.90,SSE,167,1.0,4.0,51,0.00,,,0.00,Wunderground v.1.15,2013-05-16 22:34:00,
2013-05-16 17:39:00,78.9,60.3,29.90,WNW,289,0.0,5.0,53,0.00,,,0.00,Wunderground v.1.15,2013-05-16 22:39:00,
2013-05-16 17:44:00,79.6,59.9,29.90,South,170,1.0,3.0,51,0.00,,,0.00,Wunderground v.1.15,2013-05-16 22:44:00,
2013-05-16 17:49:00,79.8,60.1,29.90,WSW,246,2.0,5.0,51,0.00,,,0.00,Wunderground v.1.15,2013-05-16 22:49:00,
2013-05-16 17:54:00,79.3,60.7,29.90,WNW,286,0.0,4.0,53,0.00,,,0.00,Wunderground v.1.15,2013-05-16 22:54:00,
2013-05-16 17:59:00,79.1,60.5,29.90,SE,140,3.0,4.0,53,0.00,,,0.00,Wunderground v.1.15,2013-05-16 22:59:00,
2013-05-16 18:04:00,78.1,59.6,29.90,WSW,254,4.0,7.0,53,0.00,,,0.00,Wunderground v.1.15,2013-05-16 23:04:00,
2013-05-16 18:09:00,77.1,60.2,29.90,South,175,3.0,7.0,56,0.00,,,0.00,Wunderground v.1.15,2013-05-16 23:09:00,
2013-05-16 18:14:00,77.1,60.2,29.90,WSW,244,2.0,5.0,56,0.00,,,0.00,Wunderground v.1.15,2013-05-16 23:14:00,
2013-05-16 18:19:00,76.3,59.4,29.90,South,184,3.0,12.0,56,0.00,,,0.00,Wunderground v.1.15,2013-05-16 23:19:00,
2013-05-16 18:25:00,76.1,60.7,29.90,SSW,195,3.0,7.0,59,0.00,,,0.00,Wunderground v.1.15,2013-05-16 23:25:00,
2013-05-16 18:30:00,76.2,60.8,29.90,SE,133,2.0,7.0,59,0.00,,,0.00,Wunderground v.1.15,2013-05-16 23:30:00,
2013-05-16 18:35:00,75.8,60.4,29.90,SW,227,3.0,6.0,59,0.00,,,0.00,Wunderground v.1.15,2013-05-16 23:35:00,
2013-05-16 18:40:00,75.3,60.0,29.90,SSW,198,3.0,8.0,59,0.00,,,0.00,Wunderground v.1.15,2013-05-16 23:40:00,
2013-05-16 18:45:00,75.0,60.2,29.90,WSW,241,3.0,5.0,60,0.00,,,0.00,Wunderground v.1.15,2013-05-16 23:45:00,
2013-05-16 18:50:00,74.9,59.6,29.90,SSW,207,1.0,7.0,59,0.00,,,0.00,Wunderground v.1.15,2013-05-16 23:50:00,
2013-05-16 18:55:00,74.8,59.5,29.91,South,186,2.0,5.0,59,0.00,,,0.00,Wunderground v.1.15,2013-05-16 23:55:00,
2013-05-16 19:00:00,74.4,57.7,29.91,SSE,155,2.0,7.0,56,0.00,,,0.00,Wunderground v.1.15,2013-05-17 00:00:00,
2013-05-16 19:05:00,73.8,57.6,29.91,SSW,201,5.0,7.0,57,0.00,,,0.00,Wunderground v.1.15,2013-05-17 00:05:00,
2013-05-16 19:10:00,73.3,57.1,29.91,SW,215,4.0,9.0,57,0.00,,,0.00,Wunderground v.1.15,2013-05-17 00:10:00,
2013-05-16 19:15:00,72.9,56.8,29.91,South,182,3.0,7.0,57,0.00,,,0.00,Wunderground v.1.15,2013-05-17 00:15:00,
2013-05-16 19:20:00,72.4,56.3,29.91,South,190,7.0,8.0,57,0.00,,,0.00,Wunderground v.1.15,2013-05-17 00:20:00,
2013-05-16 19:25:00,72.0,55.9,29.91,SE,136,5.0,8.0,57,0.00,,,0.00,Wunderground v.1.15,2013-05-17 00:25:00,
2013-05-16 19:30:00,71.6,56.5,29.91,SE,134,3.0,9.0,59,0.00,,,0.00,Wunderground v.1.15,2013-05-17 00:30:00,
2013-05-16 19:35:00,71.2,56.1,29.91,SE,134,3.0,10.0,59,0.00,,,0.00,Wunderground v.1.15,2013-05-17 00:35:00,
2013-05-16 19:40:00,70.9,55.9,29.92,SE,140,1.0,10.0,59,0.00,,,0.00,Wunderground v.1.15,2013-05-17 00:40:00,
2013-05-16 19:45:00,70.6,55.6,29.92,SSW,209,2.0,7.0,59,0.00,,,0.00,Wunderground v.1.15,2013-05-17 00:45:00,
2013-05-16 19:50:00,70.4,56.3,29.92,SSE,164,3.0,7.0,61,0.00,,,0.00,Wunderground v.1.15,2013-05-17 00:50:00,
2013-05-16 19:55:00,70.1,55.1,29.92,SSW,195,5.0,8.0,59,0.00,,,0.00,Wunderground v.1.15,2013-05-17 00:55:00,
2013-05-16 20:00:00,69.9,54.9,29.92,SE,140,3.0,8.0,59,0.00,,,0.00,Wunderground v.1.15,2013-05-17 01:00:00,
2013-05-16 20:05:00,69.8,54.8,29.92,South,181,4.0,10.0,59,0.00,,,0.00,Wunderground v.1.15,2013-05-17 01:05:00,
2013-05-16 20:10:00,69.8,55.3,29.92,South,173,2.0,10.0,60,0.00,,,0.00,Wunderground v.1.15,2013-05-17 01:10:00,
2013-05-16 20:15:00,69.8,55.3,29.92,SSE,148,6.0,11.0,60,0.00,,,0.00,Wunderground v.1.15,2013-05-17 01:15:00,
2013-05-16 20:20:00,69.7,55.6,29.92,South,182,3.0,11.0,61,0.00,,,0.00,Wunderground v.1.15,2013-05-17 01:20:00,
2013-05-16 20:25:00,69.5,55.5,29.92,ESE,113,5.0,10.0,61,0.00,,,0.00,Wunderground v.1.15,2013-05-17 01:25:00,
2013-05-16 20:30:00,69.4,55.8,29.92,SSE,150,4.0,10.0,62,0.00,,,0.00,Wunderground v.1.15,2013-05-17 01:30:00,
2013-05-16 20:35:00,69.2,55.6,29.92,SSE,153,5.0,6.0,62,0.00,,,0.00,Wunderground v.1.15,2013-05-17 01:35:00,
2013-05-16 20:40:00,69.0,55.9,29.92,SSE,154,4.0,6.0,63,0.00,,,0.00,Wunderground v.1.15,2013-05-17 01:40:00,
2013-05-16 20:45:00,68.6,55.9,29.92,SE,133,1.0,8.0,64,0.00,,,0.00,Wunderground v.1.15,2013-05-17 01:45:00,
2013-05-16 20:51:00,68.2,56.0,29.92,SE,134,1.0,3.0,65,0.00,,,0.00,Wunderground v.1.15,2013-05-17 01:51:00,
2013-05-16 20:56:00,67.9,56.1,29.93,SE,126,3.0,9.0,66,0.00,,,0.00,Wunderground v.1.15,2013-05-17 01:56:00,
2013-05-16 21:01:00,67.9,56.5,29.93,South,171,6.0,6.0,67,0.00,,,0.00,Wunderground v.1.15,2013-05-17 02:01:00,
2013-05-16 21:06:00,67.8,56.4,29.93,SE,140,2.0,6.0,67,0.00,,,0.00,Wunderground v.1.15,2013-05-17 02:06:00,
2013-05-16 21:11:00,67.7,56.8,29.93,SSW,192,0.0,3.0,68,0.00,,,0.00,Wunderground v.1.15,2013-05-17 02:11:00,
2013-05-16 21:16:00,67.9,56.9,29.93,East,90,3.0,7.0,68,0.00,,,0.00,Wunderground v.1.15,2013-05-17 02:16:00,
2013-05-16 21:21:00,68.1,56.7,29.94,South,183,3.0,6.0,67,0.00,,,0.00,Wunderground v.1.15,2013-05-17 02:21:00,
2013-05-16 21:26:00,68.3,56.5,29.94,SSW,194,4.0,8.0,66,0.00,,,0.00,Wunderground v.1.15,2013-05-17 02:26:00,
2013-05-16 21:31:00,68.4,56.6,29.94,SSE,161,1.0,5.0,66,0.00,,,0.00,Wunderground v.1.15,2013-05-17 02:31:00,
2013-05-16 21:36:00,68.4,56.6,29.94,SSW,210,3.0,9.0,66,0.00,,,0.00,Wunderground v.1.15,2013-05-17 02:36:00,
2013-05-16 21:41:00,68.3,55.2,29.94,SSW,209,6.0,6.0,63,0.00,,,0.00,Wunderground v.1.15,2013-05-17 02:41:00,
2013-05-16 21:46:00,68.2,54.7,29.95,WSW,248,4.0,7.0,62,0.00,,,0.00,Wunderground v.1.15,2013-05-17 02:46:00,
2013-05-16 21:51:00,68.3,55.2,29.95,SW,217,5.0,5.0,63,0.00,,,0.00,Wunderground v.1.15,2013-05-17 02:51:00,
2013-05-16 21:56:00,68.2,54.7,29.95,SSW,201,4.0,6.0,62,0.00,,,0.00,Wunderground v.1.15,2013-05-17 02:56:00,
2013-05-16 22:01:00,68.2,54.7,29.95,SW,224,5.0,10.0,62,0.00,,,0.00,Wunderground v.1.15,2013-05-17 03:01:00,
2013-05-16 22:06:00,68.2,54.7,29.95,WSW,238,1.0,10.0,62,0.00,,,0.00,Wunderground v.1.15,2013-05-17 03:06:00,
2013-05-16 22:11:00,68.1,54.6,29.95,South,181,6.0,7.0,62,0.00,,,0.00,Wunderground v.1.15,2013-05-17 03:11:00,
2013-05-16 22:16:00,68.1,54.6,29.95,SSW,196,4.0,9.0,62,0.00,,,0.00,Wunderground v.1.15,2013-05-17 03:16:00,
2013-05-16 22:21:00,68.0,54.9,29.95,WSW,238,2.0,4.0,63,0.00,,,0.00,Wunderground v.1.15,2013-05-17 03:21:00,
2013-05-16 22:26:00,67.9,54.8,29.95,SSW,196,5.0,10.0,63,0.00,,,0.00,Wunderground v.1.15,2013-05-17 03:26:00,
2013-05-16 22:31:00,67.9,55.3,29.95,SSE,159,4.0,9.0,64,0.00,,,0.00,Wunderground v.1.15,2013-05-17 03:31:00,
2013-05-16 22:36:00,67.8,54.7,29.95,SW,225,6.0,9.0,63,0.00,,,0.00,Wunderground v.1.15,2013-05-17 03:36:00,
2013-05-16 22:41:00,67.7,54.6,29.95,South,173,1.0,6.0,63,0.00,,,0.00,Wunderground v.1.15,2013-05-17 03:41:00,
2013-05-16 22:46:00,67.7,54.2,29.94,SSW,202,3.0,8.0,62,0.00,,,0.00,Wunderground v.1.15,2013-05-17 03:46:00,
2013-05-16 22:51:00,67.6,54.1,29.94,SSW,202,3.0,7.0,62,0.00,,,0.00,Wunderground v.1.15,2013-05-17 03:51:00,
2013-05-16 22:56:00,67.6,53.7,29.94,South,169,4.0,8.0,61,0.00,,,0.00,Wunderground v.1.15,2013-05-17 03:56:00,
2013-05-16 23:01:00,67.5,53.6,29.94,SSE,164,3.0,4.0,61,0.00,,,0.00,Wunderground v.1.15,2013-05-17 04:01:00,
2013-05-16 23:06:00,67.5,53.6,29.94,SW,236,7.0,8.0,61,0.00,,,0.00,Wunderground v.1.15,2013-05-17 04:06:00,
2013-05-16 23:11:00,67.4,53.5,29.94,South,183,4.0,4.0,61,0.00,,,0.00,Wunderground v.1.15,2013-05-17 04:11:00,
2013-05-16 23:16:00,67.4,53.5,29.94,SSE,148,5.0,10.0,61,0.00,,,0.00,Wunderground v.1.15,2013-05-17 04:16:00,
2013-05-16 23:21:00,67.3,52.9,29.94,SSW,205,2.0,6.0,60,0.00,,,0.00,Wunderground v.1.15,2013-05-17 04:21:00,
2013-05-16 23:26:00,67.3,52.5,29.94,SSW,194,4.0,8.0,59,0.00,,,0.00,Wunderground v.1.15,2013-05-17 04:26:00,
2013-05-16 23:31:00,67.3,51.5,29.94,SSE,157,3.0,4.0,57,0.00,,,0.00,Wunderground v.1.15,2013-05-17 04:31:00,
2013-05-16 23:36:00,67.4,52.1,29.94,South,186,5.0,8.0,58,0.00,,,0.00,Wunderground v.1.15,2013-05-17 04:36:00,
2013-05-16 23:41:00,67.4,52.6,29.94,SSW,195,3.0,4.0,59,0.00,,,0.00,Wunderground v.1.15,2013-05-17 04:41:00,
2013-05-16 23:46:00,67.3,52.0,29.94,South,175,5.0,9.0,58,0.00,,,0.00,Wunderground v.1.15,2013-05-17 04:46:00,
2013-05-16 23:51:00,67.1,51.4,29.94,SSE,159,1.0,5.0,57,0.00,,,0.00,Wunderground v.1.15,2013-05-17 04:51:00,
2013-05-16 23:56:00,66.9,51.2,29.94,WSW,252,3.0,6.0,57,0.00,,,0.00,Wunderground v.1.15,2013-05-17 04:56:00,